Volver al catálogo

CZ-3C R/B

ActivoHEO
NORAD 44232·ROCKET BODY·🇨🇳 China

Lanzado May 17, 2019 desde Xichang Satellite Launch Center

Loading…

Próximos Pases (próximas 24 horas)

TLE

ActualizadoSource: Space-Track

Época: Sep 14, 2026, 08:11 UTC

1 44232U 19027B   26257.34161644  .00024919  00000-0  16343-2 0  9999
2 44232  19.3965 149.9191 6311832 214.2117  81.2792  3.62925713 76231

Sigue CZ-3C R/B en tiempo real con AllMySat

Download on the App Store